Tracking 29768 objects as of 3-Oct-2024
HD Live streaming from Space Station
objects crossing your sky now

HELLAS-SAT 2

Track HELLAS-SAT 2 now!
HELLAS-SAT 2 is classified as:


NORAD ID: 27811
Int'l Code: 2003-020A
Perigee: 35,760.1 km
Apogee: 35,827.2 km
Inclination: 5.8 °
Period: 1,436.1 minutes
Semi major axis: 42164 km
RCS: 15.8489 m2 (large)
Launch date: May 13, 2003
Source: Greece (GREC)
Launch site: AIR FORCE EASTERN TEST RANGE (AFETR)

30 Ku-band; television broadcasting services for the 2004 Summer Olympic Games in Athens.
Your satellite tracking list
Your tracking list is empty




NASA's NSSDC Master Catalog

Two Line Element Set (TLE):
1 27811U 03020A   24276.84632628 -.00000075  00000-0  00000-0 0  9997
2 27811   5.7900  75.2257 0007949 136.5953  94.9625  1.00272100 36604
Source of the keplerian elements: AFSPC